Location: Poughquag
(41.6090°N, 73.6820°W)
Time: 03:39:38
(UTC-04:00)

Altair - Pass Details

Date: 05 June 2020
Orbit: 1501 x 1683 km, 47.2° (Epoch: 06 July)

Event Time Altitude Azimuth Distance (km) Brightness Sun altitude
Rises 22:13:09 0° 248° (WSW) 4,798 10.3 -15.8°
Reaches altitude 10° 22:16:13 10° 250° (WSW) 3,838 9.8 -16.1°
Maximum altitude 22:26:07 81° 338° (NNW) 1,678 7.7 -17.2°
Drops below altitude 10° 22:36:20 10° 66° (ENE) 3,946 9.5 -18.3°
Sets 22:39:32 0° 68° (ENE) 4,939 10.1 -18.6°
